TimeEDT,TemperatureF,Dew PointF,Humidity,Sea Level PressureIn,VisibilityMPH,Wind Direction,Wind SpeedMPH,Gust SpeedMPH,PrecipitationIn,Events,Conditions,WindDirDegrees,DateUTC
12:01 AM,68.0,66.2,94,29.97,9.0,Calm,Calm,-,N/A,,Overcast,0,2013-03-23 04:01:00
12:53 AM,68.0,66.9,96,29.96,10.0,NE,3.5,-,0.00,,Overcast,50,2013-03-23 04:53:00
1:06 AM,68.0,66.2,94,29.95,8.0,East,9.2,-,N/A,,Overcast,80,2013-03-23 05:06:00
1:24 AM,66.2,66.2,100,29.96,6.0,East,5.8,-,N/A,,Overcast,80,2013-03-23 05:24:00
1:33 AM,66.2,66.2,100,29.95,6.0,East,8.1,-,N/A,,Overcast,80,2013-03-23 05:33:00
1:53 AM,66.9,66.0,97,29.94,6.0,East,8.1,-,N/A,,Overcast,90,2013-03-23 05:53:00
3:53 AM,66.0,66.0,100,29.91,6.0,East,6.9,-,N/A,,Overcast,100,2013-03-23 07:53:00
4:53 AM,66.0,66.0,100,29.89,4.0,ESE,6.9,-,0.00,,Overcast,120,2013-03-23 08:53:00
5:53 AM,66.9,66.0,97,29.89,4.0,ESE,6.9,-,N/A,,Overcast,120,2013-03-23 09:53:00
6:53 AM,66.9,66.0,97,29.91,5.0,East,4.6,-,N/A,,Overcast,100,2013-03-23 10:53:00
7:53 AM,66.9,66.0,97,29.92,5.0,SE,6.9,-,N/A,,Overcast,140,2013-03-23 11:53:00
8:00 AM,66.2,66.2,100,29.91,6.0,SE,6.9,-,N/A,,Overcast,130,2013-03-23 12:00:00
8:17 AM,68.0,66.2,94,29.91,7.0,SE,6.9,-,N/A,,Overcast,130,2013-03-23 12:17:00
8:53 AM,69.1,68.0,96,29.93,10.0,ESE,5.8,-,N/A,,Overcast,120,2013-03-23 12:53:00
9:27 AM,71.6,69.8,94,29.92,10.0,SSE,6.9,-,N/A,,Overcast,150,2013-03-23 13:27:00
9:53 AM,73.9,71.1,91,29.91,10.0,South,11.5,-,N/A,,Overcast,170,2013-03-23 13:53:00
11:53 AM,78.1,71.1,79,29.91,10.0,South,12.7,-,N/A,,Scattered Clouds,190,2013-03-23 15:53:00
12:53 PM,79.0,71.1,77,29.90,10.0,SSW,12.7,-,N/A,,Scattered Clouds,210,2013-03-23 16:53:00
1:53 PM,78.1,71.1,79,29.88,10.0,South,16.1,-,N/A,,Partly Cloudy,190,2013-03-23 17:53:00
2:31 PM,77.0,71.6,83,29.88,10.0,South,15.0,23.0,N/A,,Mostly Cloudy,190,2013-03-23 18:31:00
2:53 PM,77.0,71.1,82,29.87,10.0,South,16.1,-,N/A,,Overcast,190,2013-03-23 18:53:00
3:53 PM,78.1,71.1,79,29.84,10.0,South,17.3,23.0,N/A,,Mostly Cloudy,190,2013-03-23 19:53:00
4:53 PM,77.0,71.1,82,29.82,10.0,South,16.1,-,N/A,,Mostly Cloudy,180,2013-03-23 20:53:00
5:53 PM,73.9,70.0,87,29.81,6.0,SSW,9.2,-,N/A,,Overcast,200,2013-03-23 21:53:00
6:48 PM,73.4,69.8,88,29.81,2.5,South,12.7,-,N/A,,Overcast,190,2013-03-23 22:48:00
6:53 PM,72.0,70.0,93,29.81,2.0,South,13.8,-,N/A,,Overcast,190,2013-03-23 22:53:00
7:02 PM,71.6,69.8,94,29.81,1.5,South,12.7,-,N/A,,Overcast,190,2013-03-23 23:02:00
7:39 PM,71.6,69.8,94,29.82,0.5,South,11.5,-,N/A,Fog,Fog,190,2013-03-23 23:39:00
7:53 PM,71.1,70.0,96,29.82,0.5,South,11.5,-,N/A,Fog,Fog,190,2013-03-23 23:53:00
8:14 PM,71.6,69.8,94,29.83,1.0,South,11.5,-,N/A,,Mist,190,2013-03-24 00:14:00
8:53 PM,70.0,70.0,100,29.83,1.2,South,10.4,-,N/A,,Overcast,180,2013-03-24 00:53:00
9:14 PM,69.8,69.8,100,29.84,3.0,South,10.4,-,N/A,,Overcast,180,2013-03-24 01:14:00
9:53 PM,71.1,70.0,96,29.84,6.0,South,8.1,-,N/A,,Scattered Clouds,170,2013-03-24 01:53:00
10:53 PM,72.0,70.0,93,29.85,6.0,SSE,6.9,-,N/A,,Scattered Clouds,150,2013-03-24 02:53:00
11:53 PM,70.0,69.1,97,29.84,5.0,SSE,5.8,-,N/A,,Clear,150,2013-03-24 03:53:00